[Iaude] MPEC V130: 2023 VV3 [a=2.81,e=0.64,i=1.8,H=22.0,PHA]
    mpec at marsden.cfa.harvard.edu 
    mpec at marsden.cfa.harvard.edu
       
    Thu Nov  9 08:39:18 EST 2023
    
    
  
M.P.E.C. 2023-V130                             Issued 2023 November 9, 13:37 UT
     The Minor Planet Electronic Circulars contain information on unusual
         minor planets, routine data on comets and natural satellites,
         and occasional editorial announcements.  They are published
    on behalf of Division F of the International Astronomical Union by the
          Minor Planet Center, Smithsonian Astrophysical Observatory,
                          Cambridge, MA 02138, U.S.A.
			  
             Prepared using the Tamkin Foundation Computer Network
                              MPC at CFA.HARVARD.EDU
            URL https://www.minorplanetcenter.net/    ISSN 1523-6714
                                    2023 VV3                                    
Observations:
     K23V03V* C2023 11 05.27914923 55 01.231-05 04 24.20         22.14wXEV130F51
     K23V03V  C2023 11 05.28964023 55 00.477-05 04 26.61         22.35wXEV130F51
     K23V03V  C2023 11 05.31059823 54 58.997-05 04 31.90         21.93wXEV130F51
     K23V03V  C2023 11 05.40963623 54 51.973-05 04 55.44         21.57GVEV130F51
     K23V03V  C2023 11 05.41027423 54 51.953-05 04 55.53         21.56GVEV130F51
     K23V03V KC2023 11 06.16173523 54 06.505-05 07 53.33         21.89GVEV130I52
     K23V03V KC2023 11 06.16791523 54 06.098-05 07 55.02         21.62GVEV130I52
     K23V03V KC2023 11 06.17409723 54 05.749-05 07 56.89         21.52GVEV130I52
     K23V03V KC2023 11 08.12380823 52 13.170-05 14 17.92         22.00GVEV130V06
     K23V03V KC2023 11 08.12857423 52 12.853-05 14 19.14         22.06GVEV130V06
     K23V03V KC2023 11 08.13333923 52 12.565-05 14 20.00         21.86GVEV130V06
     K23V03V KC2023 11 08.13810323 52 12.270-05 14 20.58         21.67GVEV130V06
     K23V03V KC2023 11 09.09939 23 51 21.10 -05 16 51.3          22.4 RVEV130291
     K23V03V KC2023 11 09.11382 23 51 20.28 -05 16 52.8                VEV130291
     K23V03V KC2023 11 09.11717723 51 20.023-05 16 53.87         21.45GVEV130V06
     K23V03V KC2023 11 09.12114723 51 19.793-05 16 54.77         21.47GVEV130V06
     K23V03V KC2023 11 09.12511823 51 19.544-05 16 55.31         22.08GVEV130V06
     K23V03V KC2023 11 09.12909023 51 19.332-05 16 55.67         21.43GVEV130V06
Observer details:
291 LPL/Spacewatch II.  Observer T. H. Bressi.  1.8-m f/2.7 reflector + CCD.
F51 Pan-STARRS 1, Haleakala.  Observers J. Bulger, T. Lowe, P. Minguez, A.
    Schultz, I. Smith.  Measurers K. Chambers, T. de Boer, J. Fairlamb, H.
    Gao, M. Huber, C.-C. Lin, E. Magnier, Y. Ramanjooloo, R. Wainscoat, R.
    Weryk.  1.8-m Ritchey-Chretien + CCD.
I52 Steward Observatory, Mt. Lemmon Station.  Observer R. A. Kowalski.
    Measurers E. C. Beshore, D. Fay, J. B. Fazekas, D. C. Fuls, A. R. Gibbs,
    A. D. Grauer, H. Groeller, J. K. Hogan, R. A. Kowalski, S. M. Larson, G.
    J. Leonard, D. Rankin, R. L. Seaman, F. C. Shelly, K. W. Wierzchos.  1.0-m
    prime focus + CCD.
V06 Catalina Sky Survey-Kuiper.  Observer H. Groeller.  Measurers E. C.
    Beshore, D. Fay, J. B. Fazekas, D. C. Fuls, A. R. Gibbs, A. D. Grauer, H.
    Groeller, J. K. Hogan, R. A. Kowalski, S. M. Larson, G. J. Leonard, D.
    Rankin, R. L. Seaman, F. C. Shelly, K. W. Wierzchos.  1.55-m reflector +
    1K CCD.
Orbital elements:
2023 VV3                                            PHA, Earth MOID = 0.0318 AU
Epoch 2023 Sept. 13.0 TT = JDT 2460200.5                Veres                   
M 335.58960              (2000.0)            P               Q                  
n   0.20934293     Peri.   17.67830     -0.07949746     -0.99638471             
a   2.8090783      Node    76.88942     +0.91082216     -0.08481870             
e   0.6386424      Incl.    1.76286     +0.40507179     -0.00482705             
P   4.71           H   22.00          G   0.15           U   9                  
Residuals in seconds of arc
231105 F51  0.2-  0.1+    231106 I52  0.0   0.2-    231109 291  0.0   0.1-
231105 F51  0.3-  0.3+    231106 I52  1.1+  0.7-    231109 291  0.5+  0.6+
231105 F51  0.0   0.1+    231108 V06  0.1+  0.3+    231109 V06  0.0   0.1+
231105 F51  0.2-  0.2+    231108 V06  0.2-  0.1-    231109 V06  0.1+  0.2-
231105 F51  0.1+  0.2+    231108 V06  0.1-  0.1-    231109 V06  0.1-  0.1-
231106 I52  0.2-  0.1+    231108 V06  0.0   0.1+    231109 V06  0.2+  0.1+
Ephemeris:
2023 VV3                 a,e,i = 2.81, 0.64, 2                   q = 1.0151
Date    TT    R. A. (2000) Decl.     Delta      r    Elong.  Phase     V
2023 10 10    00 30 16.5 -01 40 39   0.5331  1.5257   169.2     7.1    22.1
...
2023 10 25    00 09 05.9 -03 55 20   0.4508  1.4011   149.2    21.3    22.0
...
2023 11 02    23 58 41.2 -04 48 46   0.4202  1.3370   138.6    29.4    22.0
...
2023 11 08    23 52 19.7 -05 13 44   0.4013  1.2905   131.1    35.4    22.0
2023 11 09    23 51 25.8 -05 16 24   0.3984  1.2830   129.8    36.4    22.0
2023 11 10    23 50 35.0 -05 18 36   0.3956  1.2754   128.6    37.4    22.0
...
2023 11 16    23 46 41.1 -05 21 49   0.3793  1.2316   121.7    43.1    22.0
...
2023 11 24    23 44 58.8 -04 57 36   0.3586  1.1770   113.4    50.3    22.0
...
2023 12 09    23 53 25.8 -02 39 06   0.3160  1.0911   101.1    62.4    21.9
M. P. C. Staff               (C) Copyright 2023 MPC           M.P.E.C. 2023-V130
    
    
More information about the Iaude
mailing list